Hourly Data Report for August 31, 2013

All times are specified in Local Standard Time (LST). Add 1 hour to adjust for Daylight Saving Time where and when it is observed.

VICTORIA INTL A
BRITISH COLUMBIA

48°38'50.000" N
123°25'33.000" W
19.50 m
1018621
71799
YYJ

Download Data

Hourly Data (August 2013)
Hourly Data Report for August 31, 2013
Temp Definition
°C
Dew Point Temp Definition
°C
Rel Hum Definition
%
Wind Dir Definition
10's deg

Wind Spd Definition
km/h
Visibility Definition
km
Stn Press Definition
kPa
Hmdx Definition


Wind Chill Definition


Weather Definition


TIME
00:00 Legend Double Dagger 14.0 13.1 94 25 9 48.3 101.74     LegendNANA
01:00 Legend Double Dagger 13.9 13.1 95 27 9 48.3 101.72     Clear
02:00 Legend Double Dagger 13.4 12.6 95 30 11 48.3 101.71     LegendNANA
03:00 Legend Double Dagger 12.8 12.2 96 25 8 48.3 101.68     LegendNANA
04:00 Legend Double Dagger 13.6 12.7 94 28 10 48.3 101.66     Clear
05:00 Legend Double Dagger 13.0 12.4 96 28 9 48.3 101.64     LegendNANA
06:00 Legend Double Dagger 12.7 12.1 96 30 10 48.3 101.64     LegendNANA
07:00 Legend Double Dagger 13.8 13.3 97 28 6 48.3 101.64     Mostly Cloudy
08:00 Legend Double Dagger 14.8 13.5 92 28 10 32.2 101.59     LegendNANA
09:00 Legend Double Dagger 15.9 14.3 90 1 13 48.3 101.56     LegendNANA
10:00 Legend Double Dagger 18.7 14.0 74 36 12 48.3 101.51     Mainly Clear
11:00 Legend Double Dagger 20.0 13.3 65 4 13 48.3 101.44     LegendNANA
12:00 Legend Double Dagger 20.9 13.7 63 3 11 48.3 101.37     LegendNANA
13:00 Legend Double Dagger 22.0 13.2 57 5 13 48.3 101.30 25   Clear
14:00 Legend Double Dagger 23.2 13.0 52 2 8 48.3 101.22 26   LegendNANA
15:00 Legend Double Dagger 23.5 12.0 48 4 11 48.3 101.12 26   LegendNANA
16:00 Legend Double Dagger 24.3 13.4 50 28 9 48.3 101.04 27   Clear
17:00 Legend Double Dagger 23.8 12.9 50 28 7 48.3 100.96 27   LegendNANA
18:00 Legend Double Dagger 22.7 13.1 54 28 7 48.3 100.91 26   LegendNANA
19:00 Legend Double Dagger 19.1 12.5 65 16 4 48.3 100.88     Clear
20:00 Legend Double Dagger 17.2 12.2 72 14 6 48.3 100.88     LegendNANA
21:00 Legend Double Dagger 17.1 11.9 71 12 3 48.3 100.87     LegendNANA
22:00 Legend Double Dagger 15.6 12.6 82 28 5 48.3 100.89     Clear
23:00 Legend Double Dagger 15.0 13.1 88 28 6 48.3 100.90     LegendNANA

Notes on Data Quality.

Legend

  • E = Estimated
  • M = Missing
  • NA = Not Available
  • ‡ = Partner data that is not subject to review by the National Climate Archives
Date modified: